This is the latest recevied weather packets stored in our database for station/object KI2K. If no packets are shown the sender has not sent any weather packets the latest 1 day(s).
| Time | Temp. | Humidity | Pressure | Rain* | Wind** | Luminosity | Snow |
|---|---|---|---|---|---|---|---|
| 1777986321 | 13.89° C | 99% | 1007.3 hPa | 0 mm | 0.45 m/s, 288° | 76 W/m² | - |
| 1777986020 | 13.89° C | 99% | 1007.5 hPa | 0 mm | 0 m/s | 103 W/m² | - |
| 1777985716 | 13.89° C | 99% | 1007.4 hPa | 0 mm | 0 m/s | 156 W/m² | - |
| 1777985413 | 13.89° C | 99% | 1007.4 hPa | 0 mm | 0 m/s | 140 W/m² | - |
| 1777985110 | 13.89° C | 99% | 1007.4 hPa | 0 mm | 0.45 m/s, 280° | 118 W/m² | - |
| 1777984806 | 13.89° C | 99% | 1007.1 hPa | 0 mm | 0 m/s | 113 W/m² | - |
| 1777984503 | 13.89° C | 99% | 1007.3 hPa | 0 mm | 0.89 m/s, 213° | 150 W/m² | - |
| 1777984198 | 13.89° C | 99% | 1007 hPa | 0 mm | 0.45 m/s, 268° | 160 W/m² | - |
| 1777983896 | 13.89° C | 99% | 1007 hPa | 0 mm | 0.45 m/s, 277° | 111 W/m² | - |
| 1777983593 | 13.33° C | 99% | 1006.9 hPa | 0 mm | 0 m/s | 89 W/m² | - |
| 1777983289 | 13.33° C | 99% | 1007 hPa | 0 mm | 0 m/s | 73 W/m² | - |
| 1777982985 | 13.33° C | 99% | 1007.1 hPa | 0 mm | 0 m/s | 66 W/m² | - |
| 1777982682 | 13.89° C | 99% | 1007.1 hPa | 0 mm | 0 m/s | 66 W/m² | - |
| 1777982381 | 13.33° C | 99% | 1006.7 hPa | 0 mm | 0 m/s | 74 W/m² | - |
| 1777982078 | 13.33° C | 99% | 1006.6 hPa | 0 mm | 0 m/s | 76 W/m² | - |
| 1777981776 | 12.78° C | 99% | 1006.7 hPa | 0 mm | 0 m/s | 66 W/m² | - |
| 1777981472 | 12.78° C | 99% | 1006.8 hPa | 0 mm | 0 m/s | 52 W/m² | - |
| 1777981168 | 12.78° C | 99% | 1006.7 hPa | 0 mm | 0 m/s | 45 W/m² | - |
| 1777980865 | 12.78° C | 99% | 1006.5 hPa | 0 mm | 0 m/s | 35 W/m² | - |
| 1777980561 | 12.78° C | 99% | 1006.7 hPa | 0 mm | 0 m/s | 28 W/m² | - |
| 1777980259 | 12.78° C | 99% | 1006.2 hPa | 0 mm | 0 m/s | 23 W/m² | - |
| 1777979954 | 12.78° C | 99% | 1006.1 hPa | 0 mm | 0 m/s | 19 W/m² | - |
| 1777979649 | 12.78° C | 99% | 1006.2 hPa | 0 mm | 0 m/s | 14 W/m² | - |
| 1777979346 | 12.78° C | 99% | 1006 hPa | 0 mm | 0 m/s | 10 W/m² | - |
| 1777979043 | 12.78° C | 99% | 1005.6 hPa | 0 mm | 0 m/s | 4 W/m² | - |
* Rain latest hour (hover to see other rain measurements)
** Current wind speed in m/s (hover to see current wind gust speed)